Theta_e
361 362 357 357 356 358 356 354 348 340 340 352 349 358 356 355 356 358 359 349 349 345 341 341 342 344 347 349 350 350 351 350 346 341 337 337 338 339
356 361 361 354 356 355 354 354 352 348 342 347 350 356 362 358 358 360 359 354 357 346 342 340 341 342 344 345 345 345 346 347 345 341 337 336 336 338
361 360 360 362 353 351 352 353 351 350 345 347 351 355 363 362 362 365 359 357 352 343 342 341 340 340 341 341 340 341 341 343 343 340 337 336 336 337
358 359 358 354 361 361 353 358 357 358 351 354 359 353 359 363 363 365 359 355 357 348 343 341 339 338 337 336 335 335 336 337 339 337 336 336 335 337
359 359 358 358 360 356 358 356 353 352 353 349 348 351 353 357 359 364 361 362 354 347 342 342 341 339 339 336 333 332 330 329 331 330 331 332 333 335
358 358 358 358 359 360 358 359 358 357 357 352 350 350 350 360 357 350 347 351 352 353 350 345 345 344 341 336 336 337 331 327 323 324 325 326 328 330
358 358 359 356 349 350 355 360 361 355 349 347 346 346 346 350 351 349 348 349 355 354 349 352 350 349 348 343 345 345 334 330 324 321 321 321 322 324
359 360 361 353 352 342 340 339 348 359 357 352 347 347 360 357 353 352 351 349 346 353 354 351 353 351 351 351 342 339 335 330 326 322 319 319 319 320
364 362 359 354 354 360 344 338 339 335 339 360 355 356 359 360 362 360 362 355 353 356 358 351 356 354 356 353 340 339 335 331 327 323 321 319 318 318
362 363 363 363 348 353 362 360 360 361 360 359 361 362 363 365 366 364 363 364 361 357 364 348 353 353 357 358 344 341 336 331 327 323 320 317 315 314
351 345 353 347 326 325 352 357 359 360 349 336 335 334 333 334 341 356 352 349 348 350 357 353 354 354 355 356 357 343 336 329 324 322 321 318 313 311
346 342 328 332 318 317 342 350 350 353 355 355 357 354 344 354 335 355 357 351 351 350 358 355 354 354 350 356 357 359 359 327 321 320 319 317 312 339
339 341 340 316 312 311 314 338 337 332 337 344 347 350 352 357 362 364 364 362 357 352 356 356 352 353 353 352 356 358 361 357 360 349 315 313 310 324
328 329 329 311 309 310 318 317 315 320 336 335 335 338 340 342 348 351 355 355 355 355 360 363 359 359 357 352 350 357 358 359 360 359 360 328 310 311
323 319 312 310 310 317 315 316 315 339 339 338 338 338 340 342 348 349 354 356 357 358 356 363 366 363 361 356 354 353 351 356 360 358 358 359 358 356
318 321 321 317 315 321 325 328 334 336 336 336 334 335 337 336 335 335 335 338 338 341 355 357 358 358 347 355 359 353 355 353 356 357 363 358 358 357
309 320 321 321 322 323 325 327 329 334 334 332 330 330 330 329 329 331 329 328 327 328 332 337 354 354 352 352 347 353 357 362 358 360 363 358 355 357
313 315 316 318 318 320 321 324 326 325 326 326 326 327 326 327 328 329 329 329 327 327 327 329 328 326 329 340 339 341 345 345 350 356 356 348 348 352
310 309 310 310 312 314 316 316 317 320 324 321 321 322 323 323 322 324 325 326 325 327 328 329 328 326 322 321 332 323 329 335 337 340 343 343 344 347
308 308 308 308 309 309 310 312 312 312 315 316 316 318 319 318 319 319 319 321 322 323 323 325 326 327 325 323 323 328 316 333 336 337 340 342 342 330
305 305 306 306 307 308 309 309 310 309 307 311 311 311 314 314 315 317 317 310 311 316 317 319 323 319 326 327 323 324 328 315 327 336 339 335 334 339
303 303 304 304 305 305 306 307 307 307 308 308 309 307 307 308 307 308 308 308 310 312 313 316 321 321 321 319 320 324 323 327 324 319 318 325 333 331
301 302 301 302 302 302 303 302 303 304 304 304 305 305 306 304 304 304 304 305 305 305 308 308 311 314 316 316 317 318 323 325 322 325 328 320 320 320
Wind_Speed
4 3 6 2 3 2 3 4 5 7 6 5 4 2 6 8 7 9 10 6 8 6 5 7 8 8 7 7 6 9 9 5 5 5 3 2 3 3
6 3 5 5 4 4 4 4 5 6 8 8 4 8 8 9 4 10 11 10 12 7 2 6 8 9 9 7 7 7 9 7 7 6 5 4 4 4
6 6 6 5 7 5 5 6 6 7 8 9 9 6 7 9 9 9 10 10 5 7 1 7 7 9 9 9 7 7 7 8 8 8 6 5 5 5
8 7 8 7 7 7 7 6 8 8 8 9 8 8 7 8 8 9 7 10 8 2 4 7 8 9 9 7 6 6 7 8 9 9 8 6 6 6
8 8 7 8 7 7 5 8 7 6 7 8 8 9 7 8 7 8 8 8 8 4 9 11 10 10 10 9 7 5 6 7 9 9 9 8 8 8
7 7 7 8 7 7 7 6 7 7 8 7 9 8 9 6 6 8 9 8 8 10 5 8 9 9 12 10 9 6 5 7 8 10 9 9 9 8
8 8 9 9 6 8 8 6 7 8 8 8 9 9 9 8 10 9 10 9 9 9 9 9 10 10 8 8 8 7 3 6 8 9 10 9 8 9
9 9 10 9 10 11 11 10 9 10 10 10 11 10 9 9 8 9 11 11 12 10 10 12 11 11 10 9 6 2 5 6 7 9 11 12 11 11
9 8 8 9 7 9 11 13 12 13 14 11 13 12 12 11 10 11 10 10 11 12 12 11 9 10 10 9 6 5 6 7 7 9 10 12 12 12
8 7 8 8 8 8 10 11 12 12 11 10 12 12 13 11 9 10 12 12 12 13 10 12 10 10 10 9 8 9 6 7 8 8 10 12 13 12
10 9 8 6 7 10 9 11 11 12 10 11 11 11 12 13 10 10 12 13 13 12 11 13 12 11 10 11 10 11 9 10 10 9 10 10 10 7
4 5 5 7 7 8 7 8 10 8 9 12 12 11 10 11 14 9 10 12 12 13 10 9 12 10 12 12 7 9 10 13 14 15 15 14 10 8
3 2 5 7 6 5 4 6 7 10 11 10 8 7 8 8 4 5 7 8 9 11 10 10 12 12 11 14 11 9 10 11 10 7 14 11 12 11
5 5 5 10 8 6 5 7 6 7 7 8 7 6 6 7 7 8 10 11 11 12 12 12 9 11 10 13 13 10 9 6 12 11 10 3 11 14
6 7 11 12 11 8 7 7 6 7 7 7 7 6 8 8 9 9 8 10 11 12 11 11 8 10 9 10 11 12 11 9 8 9 7 6 8 7
5 7 5 8 9 7 7 5 6 6 6 6 7 8 8 8 8 9 10 10 10 10 8 8 10 9 6 9 10 12 11 10 12 9 6 10 12 11
11 6 5 5 6 6 6 7 7 7 7 8 9 9 8 8 9 8 9 10 10 10 11 10 8 9 9 9 11 10 10 9 10 9 9 9 10 9
2 5 5 6 7 9 8 8 9 6 7 9 10 9 9 10 10 11 11 10 10 10 10 10 10 12 11 11 12 11 9 10 8 9 11 11 12 12
3 4 5 6 6 7 8 7 9 9 9 8 10 10 10 9 10 10 11 11 11 11 11 11 11 11 12 12 10 6 12 13 13 13 11 10 12 12
6 6 6 6 7 7 7 8 6 8 10 10 11 12 11 12 11 10 11 13 13 13 13 13 12 12 11 12 15 14 13 12 12 12 13 12 12 15
6 6 6 7 8 8 8 9 10 9 9 11 9 10 12 13 13 13 13 11 11 14 15 13 13 15 14 15 16 15 13 8 13 15 13 14 15 13
6 7 7 8 8 9 10 10 10 11 11 10 10 9 10 10 11 12 12 13 14 15 16 15 15 15 14 15 17 18 15 14 13 13 20 19 15 16
7 7 7 7 8 9 9 10 11 11 11 12 12 12 12 11 11 12 12 13 13 13 16 17 16 16 16 17 18 17 22 19 14 15 15 13 22 22
Wind_Direction
207 247 278 280 283 321 319 332 332 313 317 144 317 19 334 327 14 328 318 23 297 277 329 330 317 324 333 334 292 275 278 267 269 279 289 292 292 298
241 205 269 281 268 261 283 292 294 304 301 313 305 348 343 326 350 332 322 269 246 226 289 323 292 302 322 322 314 287 273 259 240 248 263 272 267 265
250 244 249 260 269 276 269 273 277 279 284 299 329 319 328 312 328 329 306 294 339 159 316 310 287 287 309 317 312 304 283 258 242 242 243 247 262 262
238 244 250 250 238 251 267 273 302 314 295 299 298 288 302 322 308 306 314 317 341 107 262 261 262 272 285 302 304 290 275 251 232 230 240 240 249 261
243 246 254 242 246 276 292 300 286 259 253 265 290 288 312 290 317 294 293 302 285 353 252 230 238 257 274 275 283 288 282 257 238 226 221 236 248 250
234 245 252 254 257 261 258 266 269 277 272 261 277 289 296 302 265 295 317 317 325 320 324 275 265 258 252 252 252 256 254 248 228 230 226 226 227 239
234 240 231 242 272 268 282 263 272 263 268 275 276 281 280 339 331 310 296 320 308 318 321 320 315 315 302 239 256 178 220 258 234 222 229 226 233 248
236 237 251 221 232 230 237 255 272 270 269 284 293 296 300 284 304 322 321 312 310 318 321 312 306 309 305 295 91 317 295 283 229 223 214 219 222 225
239 259 259 248 213 260 221 227 246 236 234 260 272 278 291 283 295 291 288 302 297 313 295 299 304 303 315 313 168 229 241 261 239 216 223 229 224 225
251 256 264 279 30 318 285 276 268 265 230 223 242 258 261 280 291 278 282 282 267 266 275 288 299 295 304 305 295 238 252 225 247 235 218 226 229 222
49 46 47 61 14 357 301 281 283 283 268 235 264 291 290 284 272 284 276 283 290 292 299 306 311 306 297 301 306 156 203 224 225 224 237 240 236 229
94 94 67 37 5 353 336 324 305 318 318 301 294 278 249 257 246 245 275 277 292 303 304 322 305 306 299 294 295 322 290 215 214 217 219 219 191 237
9 46 81 41 4 330 314 313 336 326 309 292 295 304 314 303 301 230 278 276 280 278 300 322 308 299 289 289 288 287 296 305 288 233 222 213 190 221
22 21 11 342 324 301 285 359 311 295 289 305 308 303 313 307 298 304 305 294 291 287 297 295 284 293 292 292 293 294 295 312 303 300 298 80 196 213
8 332 281 279 280 272 203 282 277 261 285 289 318 324 329 325 307 303 322 315 300 310 291 304 292 287 282 281 288 296 302 292 287 294 306 292 277 247
344 289 290 271 269 282 273 255 273 306 318 311 315 315 318 320 325 330 322 321 305 295 265 288 305 314 318 307 298 294 291 295 298 293 295 295 288 281
310 298 329 335 331 324 322 312 300 337 333 344 323 322 321 320 318 324 319 310 310 311 311 313 317 287 269 273 296 293 284 289 293 301 298 285 287 286
278 11 2 13 351 344 342 349 345 348 331 326 317 321 320 320 323 320 303 309 305 305 308 318 324 310 301 292 249 284 301 299 303 308 291 300 301 295
5 16 18 2 2 343 336 341 335 337 324 321 320 316 312 311 308 313 308 305 302 304 308 313 307 306 304 292 306 19 322 311 306 296 292 289 299 290
26 15 6 357 349 346 329 326 323 321 323 331 322 312 309 311 308 303 304 306 308 314 306 300 292 302 311 308 304 296 267 270 280 288 287 290 291 283
20 11 3 355 350 341 336 331 329 319 319 304 302 304 317 317 313 308 307 307 300 291 292 295 300 330 303 290 279 279 285 243 271 283 284 285 287 290
13 3 1 354 347 341 336 333 325 324 319 314 319 326 313 312 310 311 314 315 311 306 299 298 297 292 291 285 283 287 282 286 296 270 243 244 268 274
7 1 352 345 344 341 336 328 319 320 317 315 321 322 315 300 298 298 297 295 292 286 288 293 294 289 283 283 284 285 279 278 286 289 281 246 232 240